CAPE
0 0 0 0 0 0 0 0 1 0 198 235 222 250 352 465 684 919 959 851 607 424 463 600 425 518 537 671 396 1224 911 31 19 0 0 3 30 28 9 4 0 0 1 0 24 130 235 372 555 730 923 1005 1073 1082 1060 1058 1050 992 1203 1118 1185 1219 1252 1165 1170 1186 1233 1212 1097 915 702 620 700 686 859 909 971 1137 1496 2016 1817 2084 2177 2567 3033 2645
0 0 0 0 0 0 0 0 0 0 0 35 25 165 405 501 618 978 1085 897 580 549 404 678 638 392 424 618 768 780 550 35 46 11 0 1 21 27 14 5 0 0 0 0 5 38 192 322 475 654 858 935 978 978 936 906 883 936 1144 1080 1021 1014 1041 980 991 1037 1048 1101 1066 739 607 638 663 936 940 861 936 1192 1516 2064 1928 2147 2164 2496 2864 3080
0 0 0 0 0 0 0 0 0 0 59 44 22 116 462 919 978 1033 1024 841 722 439 555 414 242 488 478 564 719 576 747 261 193 827 44 1 14 14 7 8 0 0 0 0 2 50 161 297 413 606 771 834 850 852 831 822 813 944 1122 1070 958 874 932 843 861 917 1017 1015 862 581 626 710 691 798 858 861 1052 1494 1410 2002 2077 2259 2158 2472 2862 3155
0 0 0 0 0 0 0 0 0 0 0 37 193 356 392 888 631 581 720 822 626 461 506 431 293 431 507 496 433 560 524 651 568 868 602 38 10 9 6 4 0 0 0 0 8 62 114 273 382 563 697 768 782 802 768 805 881 977 1110 1073 938 813 886 861 915 937 983 870 678 835 845 738 933 886 1154 1166 1245 1359 1391 1807 2185 2211 2252 2480 2828 2912
0 0 0 0 0 0 0 0 0 0 24 46 24 123 400 804 413 605 722 537 765 424 351 397 325 392 507 396 316 533 464 704 342 686 462 150 125 0 0 0 0 0 0 0 4 56 108 151 364 548 642 732 753 784 760 793 941 1014 1092 1072 960 949 980 973 1065 974 927 1163 1110 1214 1270 1554 1462 1225 982 1109 1190 1262 1512 1803 1990 2205 2327 2505 2854 2927
0 0 0 0 0 0 0 0 0 0 57 45 27 14 292 787 700 747 624 535 423 353 335 402 322 434 384 398 244 336 330 433 265 174 180 265 181 19 0 0 0 0 0 0 7 69 114 171 338 500 623 698 723 759 777 752 946 1023 1083 1048 1006 987 1022 1052 1039 1050 954 1198 1214 1178 1212 1316 1307 1208 1101 1067 1193 1297 1591 1977 1947 2082 2339 2502 2776 2902
0 0 0 0 0 0 0 0 0 0 0 26 26 11 178 674 724 724 685 636 496 445 308 354 62 31 272 372 275 333 395 296 364 130 153 588 192 78 0 0 0 0 0 0 1 48 99 169 274 461 587 656 680 726 774 807 923 1026 1047 1038 1012 942 1005 1065 1112 1133 1158 984 1264 1259 1176 1315 1281 1092 1105 1064 1149 1302 1524 1982 2068 2107 2296 2435 2636 2762
0 0 0 0 0 0 0 0 0 0 0 0 14 3 54 619 724 740 684 550 465 442 310 305 123 1 176 250 226 268 354 283 301 236 235 525 389 166 18 0 0 0 0 0 0 25 98 178 293 416 525 588 619 672 772 889 985 1038 1044 1048 1017 993 1023 1016 1120 1169 1002 1041 1270 1335 1314 1527 1334 1199 1229 1365 1399 1503 2049 2126 2220 2248 2377 2395 2525 2601
0 0 0 0 0 0 0 0 0 0 0 5 2 5 453 576 640 633 619 486 309 441 338 273 0 0 0 183 351 136 216 361 263 237 239 387 372 247 238 190 0 0 0 0 0 14 76 155 274 359 459 536 570 617 721 863 964 996 1017 1043 1049 1016 1031 1056 1084 1082 1001 1155 1289 1413 1382 1585 1467 1307 1398 1622 1988 1888 2554 2134 2252 2357 2474 2430 2469 2506
0 0 0 0 0 0 0 0 0 0 0 0 564 517 627 671 639 576 510 413 313 146 278 357 277 1 0 59 260 361 150 312 382 235 303 392 321 247 296 474 349 0 0 0 0 6 57 112 243 308 396 476 527 586 680 791 866 902 966 1024 1073 1083 1021 1038 1048 1053 978 1100 1341 1465 1471 1507 1538 1650 1592 1796 1832 1868 2273 2197 2263 2395 2605 2581 2541 2535
0 0 0 0 0 0 0 0 0 0 250 431 428 509 596 557 497 390 458 385 289 17 52 458 328 26 2 32 137 226 247 150 233 303 376 515 311 312 256 465 821 0 0 0 0 0 26 66 94 146 336 431 503 569 628 687 750 828 907 969 1036 1012 995 1034 1036 982 1015 1043 1231 1364 1431 1470 1514 1530 1621 1783 1873 1912 2185 2224 2236 2361 2666 2779 2741 2673
0 0 0 0 0 0 0 0 0 0 561 507 469 454 464 360 340 274 94 252 102 144 0 296 317 72 0 0 3 11 150 292 384 422 389 542 418 423 287 437 948 473 0 0 0 0 0 4 17 86 164 298 481 548 588 606 686 791 867 920 926 900 983 1024 1064 1017 1090 1110 1152 1205 1231 1240 1363 1428 1464 1614 1873 2001 2194 2214 2268 2333 2483 2774 2872 2801
0 0 0 0 0 0 0 0 0 0 111 164 437 308 138 251 167 48 25 283 3 124 0 167 253 10 0 0 66 10 0 0 359 495 513 535 466 382 348 700 916 1381 134 0 0 0 0 0 17 54 115 356 447 507 530 566 632 730 822 856 834 792 852 984 1077 1107 1107 1107 1146 1151 1195 1206 1197 1326 1357 1356 1568 1897 2081 2123 2154 2176 2244 2529 2768 2822
0 0 0 0 0 0 0 0 0 0 19 217 255 0 45 117 38 64 5 4 0 6 23 161 187 18 0 108 226 374 461 392 89 430 621 519 434 492 506 811 1025 1315 725 0 0 0 0 0 12 40 80 99 407 436 460 516 571 645 760 817 806 816 812 842 922 1007 1025 1037 1045 1075 1081 1172 1263 1272 1307 1305 1251 1496 1826 2034 2116 2119 2117 2301 2509 2674
0 0 0 0 0 0 0 0 0 0 12 316 352 28 144 142 0 0 64 5 1 92 172 190 83 19 11 358 364 525 626 861 980 366 481 240 520 822 1135 1222 1191 1046 1018 88 0 0 0 0 1 22 54 68 57 347 394 474 531 573 685 765 793 790 829 856 877 932 986 994 992 1029 988 1110 1182 1258 1285 1318 1259 1096 1477 1791 1968 2078 2129 2197 2362 2447
0 0 0 0 0 0 0 0 0 0 153 392 393 191 65 15 0 21 12 20 140 215 148 176 162 146 231 306 312 604 677 934 997 426 528 298 925 1171 1318 1311 1194 1026 1143 336 0 0 0 0 0 2 19 38 30 49 143 427 482 516 606 692 749 752 786 839 834 857 909 925 960 995 1031 1107 1202 1486 1268 1311 1555 1262 1356 1547 1758 1899 2025 2127 2276 2426
0 0 0 0 0 0 0 0 0 0 36 104 303 221 78 184 138 134 256 185 200 158 211 126 134 149 268 358 405 690 652 772 976 752 458 368 789 990 1147 1246 1189 1000 1018 1111 65 0 0 0 0 0 7 10 26 24 123 284 418 450 545 631 690 703 727 769 772 760 785 858 941 982 1052 1103 1156 1367 1217 1269 1426 1372 1424 1511 1617 1717 1845 1978 2123 2275
0 0 0 0 0 0 0 0 0 0 0 0 272 358 2 166 88 2 191 152 141 68 130 94 99 201 8 243 483 555 444 483 800 1006 848 454 592 817 1029 1079 1093 1044 901 1169 1038 659 46 0 0 0 1 11 32 37 82 212 220 385 514 573 617 661 657 699 698 688 731 802 898 962 1094 1199 1189 1244 1264 1312 1385 1464 1491 1563 1651 1659 1829 1868 1962 2029
0 0 0 0 0 0 0 0 0 0 0 9 19 146 0 2 0 159 15 108 72 4 22 60 56 56 34 147 434 596 467 372 394 753 952 668 491 564 964 1056 1082 1079 958 1059 1233 1034 684 172 2 0 0 12 20 61 54 173 226 340 460 537 553 570 573 622 644 712 732 744 803 920 986 1189 1311 1349 1367 1366 1407 1498 1558 1660 1662 1714 1826 1924 2012 2221
0 0 0 0 0 0 0 0 0 0 0 0 0 0 0 0 0 10 3 153 16 70 63 3 33 31 2 0 485 540 331 281 386 454 581 822 726 377 757 1062 1022 971 881 978 1288 1214 1143 770 398 54 0 8 19 41 56 164 253 310 322 562 533 488 492 536 577 831 786 767 758 820 932 990 1140 1314 1388 1423 1402 1473 1625 1647 1756 1744 1748 1991 2210 2202
0 0 0 0 0 0 0 0 0 0 0 0 0 0 0 0 0 0 0 173 7 49 12 4 1 0 105 140 423 507 323 180 365 449 434 590 736 738 581 904 906 919 928 896 1192 1370 1323 1053 934 657 93 15 22 75 91 176 288 321 282 406 622 530 590 640 605 704 820 871 844 926 886 945 996 1131 1316 1388 1425 1430 1533 1676 1878 1781 1847 1946 2117 2217
0 0 0 0 0 0 0 0 0 0 0 0 0 0 0 0 0 0 30 11 0 0 0 0 0 0 21 126 453 464 263 183 340 380 369 429 583 798 813 823 901 990 1089 970 1187 1586 1274 1323 1354 1143 953 476 121 92 91 188 297 368 354 409 615 598 716 867 714 693 868 981 974 952 921 945 959 1038 1228 1357 1424 1448 1477 1551 1751 1839 1898 1978 2018 2108
0 0 0 0 0 0 0 0 0 0 0 0 0 0 0 0 0 0 0 0 36 2 0 0 0 0 86 265 461 408 186 171 327 373 392 342 406 544 638 674 806 930 1051 1174 1354 905 873 1186 1446 1386 1084 788 515 239 151 324 374 436 424 557 700 657 722 1003 959 802 938 1044 1070 1090 1077 1043 1078 1074 1193 1340 1382 1472 1498 1509 1570 1776 1944 2033 2106 2146
668 0 0 0 0 0 0 0 0 0 0 0 0 0 2 0 0 0 0 0 0 65 68 66 1 151 140 326 427 419 400 335 390 402 374 279 323 365 592 529 652 764 856 671 858 1030 1010 1124 1208 1233 1253 1242 1109 791 470 495 524 510 504 756 920 797 816 1148 1237 1116 1075 1122 1200 1221 1226 1248 1227 1252 1273 1332 1375 1415 1502 1558 1581 1578 1728 1920 2016 2067
3 0 0 0 0 0 0 0 8 0 0 0 0 0 2 10 5 1 0 160 3 0 17 0 0 88 207 267 415 426 391 411 451 450 412 381 373 392 399 398 457 585 735 680 667 711 967 1036 958 968 1035 1018 1039 1037 995 956 984 949 914 1113 1252 1073 1193 1372 1531 1476 1326 1308 1415 1381 1400 1387 1410 1416 1446 1445 1442 1446 1480 1562 1633 1662 1645 1610 1633 1652
0 3 0 3 0 0 0 0 0 0 0 0 0 0 0 6 13 3 138 15 0 1 0 0 0 188 169 259 324 411 354 363 362 338 357 379 434 440 320 216 72 335 604 806 773 680 852 1069 1041 899 934 1088 1131 1148 1101 1068 1090 1076 1089 1209 1240 1298 1335 1323 1489 1556 1479 1539 1529 1481 1491 1522 1529 1547 1556 1563 1559 1543 1534 1552 1602 1671 1710 1717 1685 1671
2 10 4 9 0 0 0 0 0 0 0 0 0 0 2 0 9 8 119 0 0 0 0 0 58 312 205 258 299 413 349 301 212 222 168 179 221 92 63 261 123 328 414 692 853 850 691 822 1016 991 953 973 1173 1223 1222 1187 1161 1141 1144 1173 1281 1286 1300 1340 1413 1545 1602 1597 1558 1495 1507 1515 1542 1582 1599 1623 1641 1645 1647 1622 1588 1586 1608 1660 1683 1680
11 17 15 14 4 0 0 0 0 0 0 0 0 0 0 0 0 5 0 0 23 5 135 0 128 244 245 271 329 339 307 286 197 162 146 142 136 173 186 198 262 446 500 606 738 769 838 826 798 903 1114 1037 911 1188 1266 1264 1302 1314 1206 1208 1267 1316 1370 1393 1432 1491 1579 1654 1716 1673 1628 1590 1544 1511 1545 1589 1641 1654 1693 1693 1662 1586 1554 1536 1534 1555
22 23 31 18 19 11 6 6 0 0 0 0 0 0 4 0 2 15 1 0 4 0 0 135 250 275 296 281 296 319 298 258 223 188 102 132 124 138 192 256 320 391 292 575 706 760 744 798 779 795 964 948 1022 974 1085 1259 1368 1394 1388 1384 1297 1324 1419 1454 1448 1500 1510 1600 1693 1768 1782 1790 1784 1786 1789 1778 1771 1828 1861 1802 1755 1688 1577 1549 1556 1583
38 31 42 23 27 23 17 13 7 0 0 27 0 8 67 19 151 48 11 85 110 10 4 201 274 310 306 269 308 341 287 262 245 216 167 116 153 178 165 224 358 365 268 162 398 657 791 804 756 805 880 894 1007 975 946 914 934 1014 1176 1380 1588 1618 1533 1596 1316 1440 1566 1557 1559 1584 1591 1618 1648 1709 1743 1732 1756 1780 1808 1862 1869 1848 1768 1639 1507 1486
21 44 159 32 19 17 24 19 13 21 88 109 171 208 228 201 226 206 260 262 242 292 280 342 374 402 322 345 315 346 326 304 247 195 127 120 151 170 174 146 172 243 182 16 328 576 710 824 822 804 801 821 796 836 899 879 890 905 811 908 1042 1181 1356 1432 1410 1490 1413 1416 1461 1537 1529 1538 1590 1592 1548 1466 1386 1722 1757 1746 1769 1796 1800 1750 1697 1617
17 39 22 51 45 40 27 19 17 19 5 72 124 194 284 312 298 336 424 345 395 426 448 433 342 412 347 404 372 389 365 316 267 165 123 154 181 180 153 177 77 192 194 12 258 532 693 642 693 731 767 821 832 801 787 787 763 805 823 950 984 904 804 876 994 1128 1172 1092 1072 1101 1191 1319 1341 1205 1141 1162 1259 1422 1593 1649 1678 1719 1736 1702 1660 1568
7 20 26 50 40 29 27 34 28 16 12 8 27 194 417 390 400 384 346 324 394 433 438 345 364 477 443 422 417 398 365 326 259 175 104 111 146 160 162 202 193 213 9 2 0 188 283 584 490 505 510 523 536 626 653 550 788 640 670 755 737 696 867 921 905 858 729 736 708 800 828 835 849 877 962 1141 1315 1433 1481 1488 1463 1454 1446 1479 1435 1354
10 7 25 27 34 23 19 13 11 14 22 32 84 148 309 420 396 364 354 420 416 395 396 368 435 403 454 419 456 408 394 336 190 103 76 32 128 157 125 165 196 210 234 204 94 0 63 262 234 192 249 249 251 272 252 251 412 418 469 481 421 546 646 803 901 886 882 924 891 916 889 842 920 974 975 1022 1125 1210 1262 1302 1297 1245 1185 1156 1151 1138
10 41 24 4 18 15 10 16 3 4 23 25 44 53 192 393 378 290 310 387 537 395 335 311 487 432 550 465 481 414 309 148 110 78 64 52 7 76 200 205 202 109 136 124 100 62 0 188 206 170 185 178 195 105 141 2 151 238 311 464 466 532 546 622 702 719 754 843 880 950 978 997 1007 935 931 968 931 933 918 928 1066 1042 1099 1082 1024 1064
3 5 32 13 14 6 3 5 9 15 15 350 348 421 530 472 329 351 432 480 508 444 410 404 580 569 476 435 445 379 160 111 103 80 65 8 0 4 1 96 139 121 82 83 71 96 102 130 155 173 232 235 209 161 171 118 110 118 178 240 347 415 555 611 460 279 609 622 798 911 888 874 920 888 878 879 950 943 970 998 1014 1063 1095 1069 1052 992
9 9 1 35 2 15 8 4 1 18 168 248 439 490 536 469 363 300 469 431 525 463 413 524 625 579 536 506 475 311 168 135 66 0 0 0 0 0 0 0 0 0 36 19 27 19 46 63 113 158 132 118 161 16 38 152 219 248 196 165 213 48 293 352 394 300 278 425 458 569 495 470 454 626 719 786 877 906 921 930 970 1012 985 984 1070 1076
16 9 18 32 17 1 8 6 2 0 19 41 24 196 292 332 394 288 286 306 398 440 431 582 611 583 580 525 444 312 224 188 64 0 4 7 0 0 0 0 0 0 0 0 0 0 0 0 12 0 14 15 71 106 69 36 124 114 238 334 245 187 197 35 134 225 113 0 280 365 406 414 394 450 548 634 680 752 765 715 685 718 814 896 953 974
0 4 8 13 41 5 5 4 7 5 8 12 232 288 463 485 499 471 239 312 330 535 430 601 628 570 572 519 426 331 270 227 202 51 18 11 2 0 0 0 0 0 0 0 0 0 0 0 0 0 0 0 0 0 0 0 0 0 42 123 166 168 186 185 164 180 190 171 148 216 308 322 318 349 368 407 434 433 410 418 440 459 461 513 625 720
0 0 0 1 8 6 11 5 13 8 13 112 220 434 585 650 563 266 0 48 269 444 511 600 653 593 576 499 416 342 297 296 179 122 53 26 16 0 0 0 0 0 0 0 0 0 0 0 0 0 0 0 0 0 0 0 0 0 0 0 0 0 0 0 0 0 0 0 5 8 149 135 140 152 191 231 241 260 290 328 350 344 321 303 331 432
0 0 0 0 0 32 3 5 5 2 2 0 196 501 747 800 609 267 0 167 345 461 613 645 666 598 555 489 414 337 319 257 224 222 72 30 16 5 0 0 0 0 0 0 0 0 0 0 0 0 0 0 0 0 0 0 0 0 0 0 0 0 0 0 0 0 0 0 0 0 0 0 0 0 0 0 0 0 64 151 195 237 274 280 258 231
0 0 0 0 0 0 0 0 0 0 0 0 138 398 793 694 534 340 41 161 406 541 660 676 682 630 582 530 440 349 274 228 225 236 139 96 43 81 12 0 0 0 0 0 0 0 0 0 0 0 0 0 0 0 0 0 0 0 0 0 0 0 0 0 0 0 0 0 0 0 0 0 0 0 0 0 0 0 0 0 0 0 0 0 0 0
0 0 0 0 0 0 0 0 0 0 0 0 0 195 658 429 293 0 0 296 447 574 644 657 682 680 610 578 510 415 322 301 280 252 167 196 101 34 15 0 0 0 0 0 0 0 0 0 0 0 0 0 0 0 0 0 0 0 0 0 0 0 0 0 0 0 0 0 0 0 0 0 0 0 0 0 0 0 0 0 0 0 0 0 0 0
0 0 0 0 0 0 0 0 0 0 0 0 0 126 608 70 0 0 36 353 487 648 692 634 609 638 605 601 516 447 377 339 300 270 217 100 134 79 19 0 0 0 0 0 0 0 0 0 0 0 0 0 0 0 0 0 0 0 0 0 0 0 0 0 0 0 0 0 0 0 0 0 0 0 0 0 0 0 0 0 0 0 0 0 0 0
0 0 0 0 0 0 0 0 0 0 0 0 0 45 44 0 0 0 0 385 472 623 683 608 558 565 581 555 502 419 343 325 308 266 212 182 139 33 6 0 0 0 0 0 0 0 0 0 0 0 0 0 0 0 0 0 0 0 0 0 0 0 0 0 0 0 0 0 0 0 0 0 0 0 0 0 0 0 0 0 0 0 0 0 0 0
0 0 0 0 0 0 0 0 0 0 0 0 0 0 0 0 0 0 0 277 517 589 605 624 593 543 529 496 460 383 334 300 256 243 211 176 0 0 0 0 0 0 0 0 0 0 0 0 0 0 0 0 0 0 0 0 0 0 0 0 0 0 0 0 0 0 0 0 0 0 0 0 0 0 0 0 0 0 0 0 0 0 0 0 0 0
0 0 0 0 0 0 0 0 0 0 0 0 0 0 0 0 0 0 0 0 434 604 609 591 592 540 474 331 280 360 345 292 264 231 189 3 0 0 0 0 0 0 0 0 0 0 0 0 0 0 0 0 0 0 0 0 0 0 0 0 0 0 0 0 0 0 0 0 0 0 0 0 0 0 0 0 0 0 0 0 0 0 0 0 0 0
0 0 0 0 0 0 0 0 0 0 0 0 0 0 0 0 0 0 0 44 288 524 644 615 521 480 315 327 333 307 325 299 262 236 184 0 0 0 0 0 0 0 0 0 0 0 0 0 0 0 0 0 0 0 0 0 0 0 0 0 0 0 0 0 1 0 0 0 0 0 0 0 0 0 0 0 0 0 0 0 0 0 0 0 0 0
0 1 0 0 0 0 0 0 0 0 0 0 0 0 0 0 0 0 0 0 20 286 414 520 453 441 378 286 273 294 236 9 10 217 216 0 0 0 0 0 0 0 0 0 0 0 0 0 0 0 0 0 0 0 0 0 0 0 0 0 0 0 0 0 0 0 0 0 0 0 2 2 0 0 0 0 0 0 0 0 0 0 0 0 0 0
0 0 0 0 0 0 1 3 0 2 5 0 0 0 0 0 0 0 0 0 0 0 293 361 350 305 309 340 316 321 267 123 0 32 190 254 222 0 0 0 0 0 0 0 0 0 0 0 0 0 0 0 0 0 0 0 0 0 0 0 0 0 0 0 0 0 0 0 0 0 0 1 0 0 0 0 0 0 0 0 0 0 0 0 1 0
6 3 0 0 0 0 0 0 0 0 0 0 0 0 0 0 0 0 0 0 0 0 0 118 363 393 410 401 387 336 319 293 310 320 273 245 237 233 210 35 0 0 0 0 0 0 0 0 0 0 0 0 0 0 0 0 0 0 0 0 0 0 0 0 0 0 0 0 0 7 1 1 0 1 0 0 0 0 0 0 0 0 0 2 0 0
Wind_Speed
nan nan nan nan nan nan nan nan nan nan 18 18 19 21 20 23 24 23 21 13 11 11 10 19 22 18 13 11 10 19 17 nan nan nan nan nan nan nan nan nan nan nan nan nan nan 11 9 9 11 12 11 10 10 9 9 9 8 8 7 6 5 5 4 4 4 5 4 4 4 5 6 6 7 8 9 11 12 12 13 13 14 15 16 17 18 20
nan nan nan nan nan nan nan nan nan nan nan nan nan 21 21 23 22 20 18 11 6 10 10 18 21 18 13 12 13 22 16 nan nan nan nan nan nan nan nan nan nan nan nan nan nan nan 11 11 12 13 12 9 7 9 9 8 8 7 7 6 5 5 5 4 5 5 5 5 6 6 6 6 6 7 9 11 13 12 13 13 14 15 16 17 17 18
nan nan nan nan nan nan nan nan nan nan nan nan nan 21 23 24 23 22 20 15 16 18 13 12 17 17 14 15 18 20 20 17 20 20 nan nan nan nan nan nan nan nan nan nan nan nan 10 10 12 12 11 9 7 6 6 8 8 7 7 7 6 6 5 5 5 5 6 7 7 8 7 5 7 11 11 12 13 13 12 13 13 14 15 16 17 17
nan nan nan nan nan nan nan nan nan nan nan nan 27 22 17 18 19 19 23 30 26 18 13 10 15 18 19 23 21 21 22 21 23 22 20 nan nan nan nan nan nan nan nan nan nan nan 11 11 12 13 11 10 10 9 9 9 8 9 8 7 6 5 5 4 5 5 7 7 7 10 9 8 9 9 11 13 13 14 12 13 13 14 15 16 16 16
nan nan nan nan nan nan nan nan nan nan nan nan nan 20 21 16 17 23 23 22 18 19 19 17 16 16 15 15 17 17 19 20 20 26 21 20 20 nan nan nan nan nan nan nan nan nan 11 12 11 9 10 11 10 8 7 7 7 9 6 5 4 5 4 4 4 4 6 7 9 10 10 9 10 11 11 13 14 14 14 13 13 14 14 14 15 15
nan nan nan nan nan nan nan nan nan nan nan nan nan nan 18 17 24 28 28 25 20 19 14 13 14 10 10 11 11 17 17 15 24 26 22 18 20 nan nan nan nan nan nan nan nan nan 11 10 12 14 14 11 11 8 7 7 6 7 7 5 5 6 5 3 3 3 4 6 7 7 7 8 9 9 9 11 12 13 13 13 12 12 13 13 14 14
nan nan nan nan nan nan nan nan nan nan nan nan nan nan 20 19 22 24 22 22 21 18 14 13 nan nan 13 9 11 13 13 13 19 21 20 19 19 nan nan nan nan nan nan nan nan nan nan 12 13 13 13 11 10 9 9 9 8 7 6 5 4 4 4 3 2 2 4 5 8 7 7 8 9 8 11 13 15 14 15 14 11 11 12 12 12 13
nan nan nan nan nan nan nan nan nan nan nan nan nan nan nan 25 23 21 22 20 25 28 26 18 20 nan 14 11 12 14 15 13 12 18 18 18 20 19 nan nan nan nan nan nan nan nan nan 11 11 10 11 12 10 12 11 9 9 6 6 5 4 5 4 3 2 2 3 3 6 7 8 9 9 9 9 10 13 15 16 15 14 12 12 12 12 12
nan nan nan nan nan nan nan nan nan nan nan nan nan nan 23 21 21 25 25 25 24 26 23 17 nan nan nan 16 16 15 12 10 8 11 13 15 17 20 20 17 nan nan nan nan nan nan nan 11 10 11 11 11 15 14 10 8 8 8 7 7 6 5 5 4 1 1 2 3 3 5 8 9 11 11 10 11 13 14 15 15 16 14 13 13 13 12
nan nan nan nan nan nan nan nan nan nan nan nan 35 37 38 39 39 36 33 31 26 27 18 13 14 nan nan nan 14 11 7 8 7 9 13 16 19 19 20 22 18 nan nan nan nan nan nan 10 10 9 11 14 13 13 13 13 12 10 9 8 7 6 6 6 4 3 2 3 4 5 7 7 9 11 12 11 11 12 14 14 16 16 15 14 13 12
nan nan nan nan nan nan nan nan nan nan 31 32 40 41 42 43 39 38 36 31 30 nan nan 13 12 nan nan nan 11 9 5 4 11 15 17 21 24 23 23 22 22 nan nan nan nan nan nan nan nan 13 10 10 15 16 14 12 11 11 8 7 6 6 7 7 5 5 3 3 4 5 6 7 7 8 8 9 10 12 12 14 16 17 17 16 14 13
nan nan nan nan nan nan nan nan nan nan 30 35 35 35 37 41 40 38 nan 30 28 23 nan 16 12 nan nan nan nan nan 16 13 8 11 14 19 23 22 22 23 25 21 nan nan nan nan nan nan nan nan 12 13 14 15 13 12 12 10 9 7 5 7 7 7 7 6 5 5 4 5 5 6 7 6 7 6 7 9 10 12 14 17 18 17 16 14
nan nan nan nan nan nan nan nan nan nan 34 38 38 38 38 35 35 nan nan 24 nan 22 nan 24 20 nan nan nan nan nan nan nan 8 7 10 18 23 25 24 24 24 25 21 nan nan nan nan nan nan nan 12 15 14 11 10 11 11 11 10 8 6 5 6 6 6 5 6 6 5 5 4 6 8 8 8 7 8 8 10 11 12 13 14 15 15 13
nan nan nan nan nan nan nan nan nan nan nan 37 37 nan nan 36 nan nan nan nan nan nan nan 26 22 nan nan 19 15 13 12 12 nan 7 11 14 24 26 26 26 26 27 24 nan nan nan nan nan nan nan nan nan 11 11 11 12 12 12 11 10 7 6 6 6 6 6 6 6 5 5 5 5 7 8 9 10 9 9 10 10 10 10 11 12 11 11
nan nan nan nan nan nan nan nan nan nan nan 33 34 nan 31 32 nan nan nan nan nan nan 24 27 nan nan nan 18 19 18 17 15 15 12 13 13 24 33 31 28 30 30 29 nan nan nan nan nan nan nan nan nan nan 11 12 13 13 13 12 11 9 9 8 7 6 8 7 7 7 7 6 7 8 8 9 10 11 10 10 11 10 10 11 10 11 10
nan nan nan nan nan nan nan nan nan nan 36 37 36 40 nan nan nan nan nan nan 21 22 24 24 21 20 18 20 19 21 19 18 17 17 21 16 21 26 28 27 28 29 28 27 nan nan nan nan nan nan nan nan nan nan 13 13 14 13 11 11 10 9 8 8 8 8 8 8 10 9 8 7 8 9 10 11 12 12 11 10 10 10 10 10 10 10
nan nan nan nan nan nan nan nan nan nan nan 39 41 35 nan 29 33 33 32 29 27 29 26 25 22 20 21 21 20 19 21 19 16 13 14 14 16 18 22 24 26 27 28 28 nan nan nan nan nan nan nan nan nan nan 13 12 12 11 13 13 13 13 12 9 8 8 9 10 11 11 9 9 10 10 10 9 8 9 10 10 11 11 11 11 10 10
nan nan nan nan nan nan nan nan nan nan nan nan 40 32 nan 36 nan nan 32 31 31 nan 27 nan nan 24 nan 21 17 21 25 22 21 13 10 11 13 14 17 20 23 26 27 28 27 24 nan nan nan nan nan nan nan nan nan 14 15 15 14 13 13 14 13 12 11 10 10 11 11 12 11 11 11 10 10 10 9 9 11 11 11 12 11 9 10 11
nan nan nan nan nan nan nan nan nan nan nan nan nan 34 nan nan nan 38 nan 34 nan nan nan nan nan nan nan 21 18 19 23 23 20 17 10 10 8 11 14 15 19 25 27 27 28 25 22 18 nan nan nan nan nan nan nan 18 18 18 16 15 14 13 12 12 13 12 13 12 13 13 12 12 12 12 12 11 11 12 11 11 10 9 9 11 10 10
nan nan nan nan nan nan nan nan nan nan nan nan nan nan nan nan nan nan nan 31 nan nan nan nan nan nan nan nan 20 20 22 22 20 19 14 9 9 10 13 14 15 19 24 27 30 29 23 21 20 nan nan nan nan nan nan 18 19 16 16 16 15 18 20 18 14 14 13 13 14 13 14 13 12 12 12 12 13 13 11 11 10 10 11 9 11 10
nan nan nan nan nan nan nan nan nan nan nan nan nan nan nan nan nan nan nan 34 nan nan nan nan nan nan 23 21 20 22 23 22 20 17 17 15 14 13 13 16 16 18 21 27 33 32 29 27 26 24 nan nan nan nan nan 19 16 16 19 18 18 17 17 16 16 16 15 15 14 13 12 13 13 13 13 13 13 13 12 12 11 11 10 13 10 11
nan nan nan nan nan nan nan nan nan nan nan nan nan nan nan nan nan nan nan nan nan nan nan nan nan nan nan 24 22 25 24 23 20 20 22 19 16 16 17 17 17 16 20 28 35 37 36 33 31 30 28 25 23 nan nan 19 20 20 18 18 20 20 19 18 18 16 16 15 14 13 14 14 14 15 15 14 14 13 13 14 13 12 14 11 10 11
nan nan nan nan nan nan nan nan nan nan nan nan nan nan nan nan nan nan nan nan nan nan nan nan nan nan nan 26 25 26 25 24 22 23 23 23 23 23 21 19 19 20 21 27 35 40 38 36 34 32 29 25 21 19 19 21 19 18 19 21 20 20 20 20 20 20 20 18 16 15 16 16 16 16 16 15 15 13 14 15 15 15 14 12 11 10
38 nan nan nan nan nan nan nan nan nan nan nan nan nan nan nan nan nan nan nan nan nan nan nan nan 23 22 25 28 29 28 26 26 25 24 24 23 22 24 24 24 22 23 27 34 38 36 33 33 33 34 33 31 27 24 22 21 21 20 21 22 21 22 23 23 22 21 20 19 18 17 16 17 17 17 16 16 15 15 16 15 16 15 13 12 10
nan nan nan nan nan nan nan nan nan nan nan nan nan nan nan nan nan nan nan 44 nan nan nan nan nan nan 22 24 27 28 28 27 27 27 26 26 23 22 22 22 21 19 21 25 31 36 38 37 36 35 34 33 31 31 29 26 25 23 23 23 24 26 28 28 27 24 22 20 20 18 17 16 17 17 17 17 19 17 18 17 16 16 14 15 13 12
nan nan nan nan nan nan nan nan nan nan nan nan nan nan nan nan nan nan 44 nan nan nan nan nan nan 29 28 24 23 24 24 25 25 26 26 25 24 22 21 21 nan 22 21 21 27 34 38 38 37 38 36 34 33 33 32 32 31 29 28 27 27 27 28 28 28 26 24 23 22 22 20 19 18 17 16 17 19 19 20 20 18 17 17 15 14 13
nan nan nan nan nan nan nan nan nan nan nan nan nan nan nan nan nan nan 46 nan nan nan nan nan nan 34 31 26 24 20 20 20 21 22 22 22 23 nan nan 21 21 22 23 24 25 30 37 40 40 39 37 35 35 35 35 33 31 30 28 28 29 28 29 29 30 29 29 29 29 27 25 23 24 25 22 21 20 21 22 20 20 19 18 18 17 16
nan nan nan nan nan nan nan nan nan nan nan nan nan nan nan nan nan nan nan nan nan nan 37 nan 32 35 29 32 31 28 26 24 23 24 23 21 20 22 23 24 26 25 25 25 26 28 33 37 40 42 40 37 35 38 37 35 32 30 29 29 29 29 29 30 30 30 30 30 29 28 27 26 25 26 28 30 30 26 22 21 21 20 20 21 19 19
nan nan nan nan nan nan nan nan nan nan nan nan nan nan nan nan nan nan nan nan nan nan nan 32 33 33 32 34 35 34 32 30 30 30 30 28 25 24 25 26 28 28 25 26 25 26 30 32 37 41 41 39 40 42 42 39 36 35 34 31 29 30 31 31 31 31 31 32 32 32 30 28 24 24 27 29 29 29 28 26 23 23 23 22 21 22
nan nan nan nan nan nan nan nan nan nan nan nan nan nan nan nan 45 nan nan nan 44 nan nan 41 37 38 35 36 33 33 34 34 35 37 36 35 33 30 28 28 28 27 27 28 28 28 27 29 33 38 41 43 43 43 44 43 40 39 38 36 34 32 32 33 32 31 31 31 30 29 29 30 30 29 28 29 29 29 27 26 26 27 27 27 26 25
nan nan 41 nan nan nan nan nan nan nan nan 47 46 48 47 45 47 47 47 49 54 52 49 47 43 40 38 37 36 36 35 35 36 37 37 36 34 33 31 30 28 26 28 nan 28 29 29 30 32 34 37 39 41 43 43 44 44 43 42 41 40 39 39 40 40 38 36 36 36 34 32 30 29 30 31 31 30 29 28 28 27 28 28 28 28 28
nan nan nan nan nan nan nan nan nan nan nan nan 46 48 48 45 45 40 42 40 44 44 47 48 43 38 37 40 40 37 37 37 38 38 37 35 35 35 34 31 nan 29 29 nan 32 31 31 30 31 32 32 33 35 36 37 41 45 48 47 46 44 43 44 45 43 42 40 39 39 38 37 37 36 35 34 32 30 28 27 28 28 28 28 28 29 29
nan nan nan nan nan nan nan nan nan nan nan nan nan 40 40 40 39 39 39 41 38 45 44 38 31 37 40 40 41 37 37 38 38 36 37 35 34 35 35 33 31 32 nan nan nan 34 33 30 30 31 32 32 33 32 31 31 36 41 43 44 41 43 46 46 44 43 42 41 42 42 39 37 37 36 36 36 36 36 33 33 34 34 33 33 31 30
nan nan nan nan nan nan nan nan nan nan nan nan nan 34 35 38 37 42 38 39 39 38 36 39 42 43 41 39 39 37 36 35 35 33 nan nan 34 35 36 34 32 32 33 34 nan nan nan 32 30 30 30 31 31 29 25 27 29 29 30 32 34 37 38 41 45 45 45 43 42 42 40 39 38 36 36 35 36 36 36 35 36 36 35 33 34 34
nan nan nan nan nan nan nan nan nan nan nan nan nan nan 35 41 45 45 44 44 38 38 42 45 44 42 39 38 38 39 40 39 38 nan nan nan nan nan 34 33 31 31 33 33 nan nan nan 35 34 33 31 30 29 27 25 nan 25 25 26 27 29 30 30 32 34 35 36 38 38 38 39 39 39 38 37 36 36 37 36 34 33 34 33 34 36 36
nan nan nan nan nan nan nan nan nan nan nan 36 37 40 39 42 41 47 45 44 43 37 42 43 42 41 40 40 40 41 42 42 42 nan nan nan nan nan nan nan 29 29 nan nan nan nan 33 34 36 36 34 31 33 31 29 28 26 26 25 26 27 27 28 28 28 25 24 27 28 28 28 31 34 35 35 35 35 35 35 34 35 35 35 35 37 38
nan nan nan nan nan nan nan nan nan nan 36 39 41 40 39 38 38 40 39 40 39 36 39 43 42 40 39 38 40 43 43 44 nan nan nan nan nan nan nan nan nan nan nan nan nan nan nan nan 33 33 33 34 35 nan nan 31 32 32 31 31 29 nan 28 28 29 27 24 22 23 24 22 23 26 28 29 30 30 31 30 31 32 34 35 38 38 39
nan nan nan nan nan nan nan nan nan nan nan nan nan 36 35 35 36 37 41 40 39 40 37 43 42 40 37 36 37 39 43 45 nan nan nan nan nan nan nan nan nan nan nan nan nan nan nan nan nan nan nan nan nan 32 nan nan 34 35 37 35 33 33 31 nan 27 26 24 nan 23 24 25 25 25 26 25 26 26 24 23 23 25 27 30 33 36 38
nan nan nan nan nan nan nan nan nan nan nan nan 35 36 36 37 38 38 40 38 37 39 36 38 41 39 38 35 34 34 36 36 31 nan nan nan nan nan nan nan nan nan nan nan nan nan nan nan nan nan nan nan nan nan nan nan nan nan nan 34 32 32 32 29 28 27 26 25 25 27 29 29 29 30 30 29 28 26 26 26 26 24 25 27 29 32
nan nan nan nan nan nan nan nan nan nan nan 38 35 34 34 36 35 38 nan nan 31 35 36 35 40 40 38 37 36 34 35 36 27 24 nan nan nan nan nan nan nan nan nan nan nan nan nan nan nan nan nan nan nan nan nan nan nan nan nan nan nan nan nan nan nan nan nan nan nan nan 32 31 30 31 32 31 30 29 30 29 32 33 32 31 29 29
nan nan nan nan nan nan nan nan nan nan nan nan 34 33 35 33 37 35 nan 26 26 32 33 34 36 39 40 39 36 36 30 34 34 37 nan nan nan nan nan nan nan nan nan nan nan nan nan nan nan nan nan nan nan nan nan nan nan nan nan nan nan nan nan nan nan nan nan nan nan nan nan nan nan nan nan nan nan nan nan 31 33 34 34 34 33 34
nan nan nan nan nan nan nan nan nan nan nan nan 35 34 31 33 33 29 nan 26 27 29 31 32 34 34 36 36 36 39 41 45 46 43 41 nan nan nan nan nan nan nan nan nan nan nan nan nan nan nan nan nan nan nan nan nan nan nan nan nan nan nan nan nan nan nan nan nan nan nan nan nan nan nan nan nan nan nan nan nan nan nan nan nan nan nan
nan nan nan nan nan nan nan nan nan nan nan nan nan 36 36 34 28 nan nan 31 30 33 35 33 34 34 37 40 41 43 45 45 44 43 42 42 43 nan nan nan nan nan nan nan nan nan nan nan nan nan nan nan nan nan nan nan nan nan nan nan nan nan nan nan nan nan nan nan nan nan nan nan nan nan nan nan nan nan nan nan nan nan nan nan nan nan
nan nan nan nan nan nan nan nan nan nan nan nan nan 33 34 nan nan nan nan 37 35 37 38 39 37 37 39 42 44 44 45 47 44 44 44 44 45 nan nan nan nan nan nan nan nan nan nan nan nan nan nan nan nan nan nan nan nan nan nan nan nan nan nan nan nan nan nan nan nan nan nan nan nan nan nan nan nan nan nan nan nan nan nan nan nan nan
nan nan nan nan nan nan nan nan nan nan nan nan nan nan nan nan nan nan nan 38 39 38 40 42 40 40 41 40 43 45 45 44 44 42 43 43 44 nan nan nan nan nan nan nan nan nan nan nan nan nan nan nan nan nan nan nan nan nan nan nan nan nan nan nan nan nan nan nan nan nan nan nan nan nan nan nan nan nan nan nan nan nan nan nan nan nan
nan nan nan nan nan nan nan nan nan nan nan nan nan nan nan nan nan nan nan 38 37 39 39 40 39 41 41 40 45 42 45 45 47 44 43 43 nan nan nan nan nan nan nan nan nan nan nan nan nan nan nan nan nan nan nan nan nan nan nan nan nan nan nan nan nan nan nan nan nan nan nan nan nan nan nan nan nan nan nan nan nan nan nan nan nan nan
nan nan nan nan nan nan nan nan nan nan nan nan nan nan nan nan nan nan nan nan 35 39 43 45 46 48 48 44 40 42 43 45 46 46 46 nan nan nan nan nan nan nan nan nan nan nan nan nan nan nan nan nan nan nan nan nan nan nan nan nan nan nan nan nan nan nan nan nan nan nan nan nan nan nan nan nan nan nan nan nan nan nan nan nan nan nan
nan nan nan nan nan nan nan nan nan nan nan nan nan nan nan nan nan nan nan nan 35 37 40 42 46 44 39 36 33 37 41 43 47 48 48 nan nan nan nan nan nan nan nan nan nan nan nan nan nan nan nan nan nan nan nan nan nan nan nan nan nan nan nan nan nan nan nan nan nan nan nan nan nan nan nan nan nan nan nan nan nan nan nan nan nan nan
nan nan nan nan nan nan nan nan nan nan nan nan nan nan nan nan nan nan nan nan nan 40 39 38 39 34 35 40 45 46 45 nan nan 43 49 nan nan nan nan nan nan nan nan nan nan nan nan nan nan nan nan nan nan nan nan nan nan nan nan nan nan nan nan nan nan nan nan nan nan nan nan nan nan nan nan nan nan nan nan nan nan nan nan nan nan nan
nan nan nan nan nan nan nan nan nan nan nan nan nan nan nan nan nan nan nan nan nan nan 36 40 43 42 40 41 44 41 41 38 nan nan 37 43 46 nan nan nan nan nan nan nan nan nan nan nan nan nan nan nan nan nan nan nan nan nan nan nan nan nan nan nan nan nan nan nan nan nan nan nan nan nan nan nan nan nan nan nan nan nan nan nan nan nan
nan nan nan nan nan nan nan nan nan nan nan nan nan nan nan nan nan nan nan nan nan nan nan 39 42 43 42 39 39 42 41 41 39 39 40 40 40 40 42 nan nan nan nan nan nan nan nan nan nan nan nan nan nan nan nan nan nan nan nan nan nan nan nan nan nan nan nan nan nan nan nan nan nan nan nan nan nan nan nan nan nan nan nan nan nan nan
Wind_Direction
nan nan nan nan nan nan nan nan nan nan 204 198 200 211 216 217 213 210 211 232 222 233 210 202 202 202 205 215 232 205 204 nan nan nan nan nan nan nan nan nan nan nan nan nan nan 174 175 184 195 194 192 183 173 162 146 139 136 132 129 126 106 107 106 112 102 89 76 86 92 102 80 92 106 120 125 116 115 109 101 101 104 103 107 111 114 117
nan nan nan nan nan nan nan nan nan nan nan nan nan 215 216 217 218 212 208 230 215 200 215 202 210 205 214 216 220 204 216 nan nan nan nan nan nan nan nan nan nan nan nan nan nan nan 182 190 206 202 197 191 179 159 148 135 136 140 138 126 124 123 112 112 106 107 107 109 106 112 93 119 111 126 132 127 120 116 110 108 110 112 115 118 120 121
nan nan nan nan nan nan nan nan nan nan nan nan nan 213 223 215 224 219 217 224 214 207 209 224 211 208 219 224 213 211 208 218 207 187 nan nan nan nan nan nan nan nan nan nan nan nan 184 194 210 204 195 179 169 169 150 146 154 155 148 147 138 133 128 124 119 132 128 125 120 121 125 131 143 146 147 149 138 127 124 117 117 119 122 126 128 127
nan nan nan nan nan nan nan nan nan nan nan nan 207 214 218 225 228 219 220 212 201 197 217 229 220 208 220 217 214 205 203 211 205 188 175 nan nan nan nan nan nan nan nan nan nan nan 188 195 207 202 192 185 186 188 174 158 155 156 158 159 150 141 139 137 130 139 137 134 144 153 155 157 153 140 151 159 155 144 139 127 126 125 127 130 133 134
nan nan nan nan nan nan nan nan nan nan nan nan nan 205 218 225 210 226 234 232 227 211 212 219 217 205 214 230 216 213 205 210 211 194 182 183 184 nan nan nan nan nan nan nan nan nan 195 198 205 199 193 194 190 190 175 162 153 151 155 161 153 146 137 140 134 151 162 157 165 161 162 155 159 163 160 162 158 146 139 138 130 125 129 131 135 137
nan nan nan nan nan nan nan nan nan nan nan nan nan nan 216 225 230 239 253 249 231 222 214 234 220 201 220 227 239 232 221 218 216 199 184 180 186 nan nan nan nan nan nan nan nan nan 200 198 198 198 200 193 187 187 172 166 158 155 162 177 170 161 161 146 136 160 158 145 153 155 147 141 143 143 144 138 144 148 144 138 141 142 135 135 137 138
nan nan nan nan nan nan nan nan nan nan nan nan nan nan 220 233 238 254 259 244 238 235 235 209 nan nan 211 242 240 234 227 234 228 206 187 182 182 nan nan nan nan nan nan nan nan nan nan 196 202 199 197 192 184 180 191 183 170 160 162 182 185 164 165 160 152 139 163 167 156 142 132 133 125 128 133 149 154 156 155 159 157 151 147 143 141 142
nan nan nan nan nan nan nan nan nan nan nan nan nan nan nan 232 241 251 258 240 230 230 233 224 219 nan 211 209 228 234 225 222 229 209 192 181 179 183 nan nan nan nan nan nan nan nan nan 207 205 203 193 190 180 196 199 192 181 170 159 177 189 175 177 169 176 143 166 186 160 145 139 140 136 131 135 145 150 158 163 166 165 165 157 154 150 149
nan nan nan nan nan nan nan nan nan nan nan nan nan nan 230 239 237 241 238 226 229 237 233 230 nan nan nan 215 234 249 231 215 216 224 205 189 182 184 187 190 nan nan nan nan nan nan nan 216 205 202 196 185 197 199 199 193 189 181 170 173 188 190 187 182 211 219 175 189 176 151 149 145 145 147 154 158 158 162 164 171 174 171 167 164 158 157
nan nan nan nan nan nan nan nan nan nan nan nan 210 211 214 217 217 219 220 225 219 224 224 232 226 nan nan nan 230 247 235 210 219 234 223 209 197 188 191 191 194 nan nan nan nan nan nan 221 219 211 204 204 196 195 199 202 203 195 182 178 184 186 187 187 193 212 220 197 194 177 156 152 158 161 166 162 159 163 166 167 172 174 173 170 169 164
nan nan nan nan nan nan nan nan nan nan 201 204 220 218 213 214 216 217 219 217 219 nan nan 232 219 nan nan nan 231 260 223 222 236 230 223 216 209 196 192 193 193 nan nan nan nan nan nan nan nan 223 218 207 206 202 204 207 209 205 192 184 182 181 190 190 192 204 213 203 199 183 166 158 162 162 167 167 161 164 167 167 170 172 172 176 174 175
nan nan nan nan nan nan nan nan nan nan 210 213 210 215 215 208 210 219 nan 217 221 208 nan 235 223 nan nan nan nan nan 209 221 248 251 245 230 220 204 195 194 191 195 nan nan nan nan nan nan nan nan 215 215 213 209 207 209 215 213 200 190 191 192 196 192 192 196 201 205 201 189 177 160 159 164 164 162 162 159 162 169 172 172 176 175 181 181
nan nan nan nan nan nan nan nan nan nan 201 212 219 218 217 206 211 nan nan 214 nan 215 nan 224 234 nan nan nan nan nan nan nan 227 264 261 238 223 209 198 197 192 192 211 nan nan nan nan nan nan nan 216 216 214 208 212 218 221 220 211 201 206 196 201 204 204 200 200 207 207 198 184 166 172 165 165 171 174 170 170 173 178 178 172 178 181 181
nan nan nan nan nan nan nan nan nan nan nan 218 222 nan nan 213 nan nan nan nan nan nan nan 227 218 nan nan 206 213 206 207 210 nan 265 280 245 223 211 203 196 194 192 205 nan nan nan nan nan nan nan nan nan 214 207 211 218 221 221 217 210 206 203 206 214 216 214 210 204 216 210 197 194 195 181 172 170 178 178 175 176 174 176 176 177 174 185
nan nan nan nan nan nan nan nan nan nan nan 214 213 nan 221 222 nan nan nan nan nan nan 212 221 nan nan nan 213 204 209 218 213 217 250 273 248 221 213 204 197 195 193 199 nan nan nan nan nan nan nan nan nan nan 214 212 215 219 222 220 218 210 211 207 215 221 220 218 209 217 219 205 208 213 206 185 172 175 182 186 179 178 174 181 179 177 179
nan nan nan nan nan nan nan nan nan nan 211 208 210 213 nan nan nan nan nan nan 218 221 226 219 212 209 211 207 204 222 226 220 216 240 252 247 231 224 208 198 195 193 199 207 nan nan nan nan nan nan nan nan nan nan 213 215 220 220 220 222 219 223 223 217 222 223 225 218 220 225 222 213 220 216 205 193 182 181 183 186 178 177 179 177 183 181
nan nan nan nan nan nan nan nan nan nan nan 208 218 219 nan 213 222 215 211 210 217 212 214 214 207 206 206 210 209 228 231 223 227 232 249 247 228 228 214 208 205 199 199 205 nan nan nan nan nan nan nan nan nan nan 214 218 220 221 221 222 221 216 216 219 220 226 222 224 226 224 226 223 224 227 226 216 199 189 190 191 184 186 181 187 188 189
nan nan nan nan nan nan nan nan nan nan nan nan 218 211 nan 212 nan nan 216 212 214 nan 213 nan nan 204 nan 207 213 228 228 223 219 226 238 241 229 225 219 222 223 215 207 206 209 207 nan nan nan nan nan nan nan nan nan 214 215 215 215 221 227 224 222 214 217 221 222 225 224 225 225 226 228 230 228 226 224 212 210 200 199 199 199 189 192 194
nan nan nan nan nan nan nan nan nan nan nan nan nan 222 nan nan nan 206 nan 217 nan nan nan nan nan nan nan 208 211 233 230 231 223 221 240 246 238 227 226 229 229 228 218 211 214 215 211 206 nan nan nan nan nan nan nan 217 217 214 210 210 218 227 228 230 220 219 217 221 219 220 225 231 229 228 228 226 229 229 223 216 213 208 201 210 210 208
nan nan nan nan nan nan nan nan nan nan nan nan nan nan nan nan nan nan nan 222 nan nan nan nan nan nan nan nan 214 232 239 236 230 229 231 242 240 231 230 232 236 232 224 217 216 215 215 211 206 nan nan nan nan nan nan 223 220 215 211 211 212 216 219 223 226 226 226 220 218 220 224 225 229 231 233 232 235 235 233 230 229 220 223 221 223 223
nan nan nan nan nan nan nan nan nan nan nan nan nan nan nan nan nan nan nan 216 nan nan nan nan nan nan 212 215 214 237 237 239 237 233 226 227 229 231 232 234 234 228 225 222 219 216 216 214 212 211 nan nan nan nan nan 219 220 217 217 213 215 221 221 221 223 228 225 224 216 219 222 226 229 232 230 233 234 235 234 235 233 231 227 233 231 237
nan nan nan nan nan nan nan nan nan nan nan nan nan nan nan nan nan nan nan nan nan nan nan nan nan nan nan 212 217 238 231 237 237 239 230 230 238 237 235 237 236 236 226 223 222 221 218 215 213 214 216 217 219 nan nan 217 217 219 221 219 218 218 217 218 219 223 228 226 221 215 212 215 222 226 228 234 234 232 233 235 235 234 236 238 237 247
nan nan nan nan nan nan nan nan nan nan nan nan nan nan nan nan nan nan nan nan nan nan nan nan nan nan nan 213 223 236 237 238 236 237 236 231 231 227 231 242 240 236 229 224 228 228 223 214 211 212 216 218 220 219 222 221 219 216 221 226 223 222 217 216 216 219 224 224 220 214 212 212 214 219 223 227 230 231 233 234 234 236 240 237 238 246
198 nan nan nan nan nan nan nan nan nan nan nan nan nan nan nan nan nan nan nan nan nan nan nan nan 223 222 223 226 239 241 239 234 237 236 235 234 229 227 231 234 240 242 231 224 228 229 223 218 216 217 218 215 216 219 220 217 217 220 224 226 225 223 220 218 219 221 223 221 218 216 213 214 216 217 219 223 227 230 233 235 238 241 240 241 249
nan nan nan nan nan nan nan nan nan nan nan nan nan nan nan nan nan nan nan 229 nan nan nan nan nan nan 234 230 234 239 243 241 240 236 236 237 235 232 230 232 237 240 242 238 235 227 227 225 221 221 222 222 221 219 222 224 223 222 220 221 225 225 226 223 221 220 218 223 225 222 217 214 216 217 215 213 216 220 227 229 231 235 239 241 241 246
nan nan nan nan nan nan nan nan nan nan nan nan nan nan nan nan nan nan 235 nan nan nan nan nan nan 224 236 237 238 238 240 239 240 243 241 239 239 239 234 228 nan 226 223 237 237 231 228 229 226 223 222 222 222 222 221 222 224 224 221 221 224 231 231 230 227 225 222 220 224 222 219 213 211 212 215 218 220 220 223 224 226 227 227 232 235 237
nan nan nan nan nan nan nan nan nan nan nan nan nan nan nan nan nan nan 236 nan nan nan nan nan nan 245 243 245 244 241 239 242 248 249 250 248 244 nan nan 228 227 230 228 226 233 230 227 229 231 229 221 217 223 228 225 228 229 229 229 226 222 224 228 229 230 227 225 223 223 224 222 214 207 204 204 210 217 223 225 226 226 226 225 226 226 229
nan nan nan nan nan nan nan nan nan nan nan nan nan nan nan nan nan nan nan nan nan nan 235 nan 252 260 253 249 247 249 248 245 250 255 257 258 255 246 243 239 233 231 229 227 226 229 228 231 234 231 224 221 223 228 229 227 226 228 231 232 230 226 225 227 231 229 227 227 228 226 224 222 216 216 214 212 210 211 219 225 227 227 227 228 225 225
nan nan nan nan nan nan nan nan nan nan nan nan nan nan nan nan nan nan nan nan nan nan nan 249 260 261 259 256 254 254 255 255 255 259 261 261 260 255 250 244 238 236 234 235 228 224 233 233 233 232 230 227 228 229 229 229 228 224 223 225 225 228 226 224 222 224 228 226 221 218 218 219 222 224 222 220 221 217 215 218 223 226 226 227 227 228
nan nan nan nan nan nan nan nan nan nan nan nan nan nan nan nan 222 nan nan nan 234 nan nan 256 255 249 255 259 259 256 251 254 255 259 261 261 260 254 252 248 247 241 236 235 234 231 228 232 234 234 233 229 228 227 228 229 229 228 226 225 228 230 229 231 232 228 227 228 227 224 220 218 216 219 226 227 226 221 218 219 223 227 228 225 225 224
nan nan 198 nan nan nan nan nan nan nan nan 226 219 220 221 224 226 224 232 235 238 235 246 254 253 250 247 256 254 254 256 255 258 259 257 257 258 258 254 252 250 246 243 nan 234 235 236 234 233 234 232 230 229 230 231 231 231 231 230 229 230 229 229 230 232 230 229 230 229 227 225 225 224 223 225 231 235 234 229 224 223 224 225 226 226 226
nan nan nan nan nan nan nan nan nan nan nan nan 222 218 218 222 228 224 228 227 235 245 250 250 250 249 252 254 256 259 262 263 262 260 258 256 255 254 253 251 nan 246 241 nan 238 235 235 234 232 232 231 230 231 231 233 236 234 230 229 230 229 227 228 230 231 232 231 232 232 230 228 228 230 230 230 233 238 241 240 238 234 231 230 229 229 232
nan nan nan nan nan nan nan nan nan nan nan nan nan 218 221 225 229 228 226 226 240 259 254 255 251 248 256 258 261 262 263 261 262 261 260 257 254 254 253 253 251 248 nan nan nan 235 232 232 233 234 233 230 228 230 230 231 234 232 230 231 231 230 230 232 233 233 233 233 232 229 228 229 232 234 234 233 236 240 242 243 241 238 237 236 236 236
nan nan nan nan nan nan nan nan nan nan nan nan nan 219 228 229 232 234 228 233 234 229 237 237 245 251 253 257 263 265 263 259 258 251 nan nan 257 252 249 250 252 250 247 246 nan nan nan 233 231 231 233 230 227 228 228 226 226 224 224 228 228 230 232 234 233 232 232 232 231 229 228 230 232 233 232 230 231 233 235 239 240 239 238 241 243 241
nan nan nan nan nan nan nan nan nan nan nan nan nan nan 227 237 241 239 234 230 226 238 245 251 254 257 254 253 257 256 251 248 249 nan nan nan nan nan 253 254 256 252 247 243 nan nan nan 239 238 236 232 226 221 222 223 nan 230 233 226 223 227 226 229 229 232 231 230 230 230 230 229 229 230 232 231 232 233 233 235 236 237 236 235 235 236 238
nan nan nan nan nan nan nan nan nan nan nan 206 212 220 226 234 236 239 231 228 228 236 254 254 256 256 257 256 252 252 254 251 247 nan nan nan nan nan nan nan 255 250 nan nan nan nan 242 242 242 243 239 233 232 231 230 232 237 239 231 226 226 227 227 226 226 225 226 227 225 226 225 226 227 229 230 231 235 237 236 235 236 238 238 237 236 238
nan nan nan nan nan nan nan nan nan nan 210 210 211 215 219 226 231 232 237 231 230 233 249 256 257 258 258 256 255 255 256 254 nan nan nan nan nan nan nan nan nan nan nan nan nan nan nan nan 242 244 245 243 242 nan nan 234 238 241 237 233 232 nan 235 233 229 228 229 233 230 227 225 226 227 227 226 225 228 231 234 234 235 236 237 239 238 240
nan nan nan nan nan nan nan nan nan nan nan nan nan 206 216 221 227 232 237 231 229 233 242 258 260 261 260 258 258 258 258 258 nan nan nan nan nan nan nan nan nan nan nan nan nan nan nan nan nan nan nan nan nan 241 nan nan 238 240 241 239 237 237 237 nan 234 231 231 nan 238 239 237 233 232 233 233 232 231 231 232 231 230 231 234 237 238 240
nan nan nan nan nan nan nan nan nan nan nan nan 199 205 207 218 225 230 231 232 232 238 241 254 261 263 267 267 264 262 259 260 259 nan nan nan nan nan nan nan nan nan nan nan nan nan nan nan nan nan nan nan nan nan nan nan nan nan nan 241 240 238 237 235 235 234 231 232 238 242 244 244 243 242 242 241 240 240 238 234 234 236 239 240 239 240
nan nan nan nan nan nan nan nan nan nan nan 209 205 206 208 214 225 227 nan nan 238 242 245 252 262 264 261 264 265 262 262 258 257 259 nan nan nan nan nan nan nan nan nan nan nan nan nan nan nan nan nan nan nan nan nan nan nan nan nan nan nan nan nan nan nan nan nan nan nan nan 248 250 248 246 244 242 242 244 246 245 245 245 248 248 247 246
nan nan nan nan nan nan nan nan nan nan nan nan 207 201 206 216 222 225 nan 223 235 244 245 251 258 263 266 267 267 264 254 252 265 261 nan nan nan nan nan nan nan nan nan nan nan nan nan nan nan nan nan nan nan nan nan nan nan nan nan nan nan nan nan nan nan nan nan nan nan nan nan nan nan nan nan nan nan nan nan 249 250 251 250 250 248 248
nan nan nan nan nan nan nan nan nan nan nan nan 208 203 206 215 219 220 nan 226 245 245 245 252 256 260 266 270 261 254 258 259 261 262 263 nan nan nan nan nan nan nan nan nan nan nan nan nan nan nan nan nan nan nan nan nan nan nan nan nan nan nan nan nan nan nan nan nan nan nan nan nan nan nan nan nan nan nan nan nan nan nan nan nan nan nan
nan nan nan nan nan nan nan nan nan nan nan nan nan 214 216 220 222 nan nan 230 235 249 257 254 258 260 260 254 251 259 261 264 267 267 265 263 264 nan nan nan nan nan nan nan nan nan nan nan nan nan nan nan nan nan nan nan nan nan nan nan nan nan nan nan nan nan nan nan nan nan nan nan nan nan nan nan nan nan nan nan nan nan nan nan nan nan
nan nan nan nan nan nan nan nan nan nan nan nan nan 236 225 nan nan nan nan 243 237 247 254 255 253 257 258 261 264 261 262 263 261 262 261 259 258 nan nan nan nan nan nan nan nan nan nan nan nan nan nan nan nan nan nan nan nan nan nan nan nan nan nan nan nan nan nan nan nan nan nan nan nan nan nan nan nan nan nan nan nan nan nan nan nan nan
nan nan nan nan nan nan nan nan nan nan nan nan nan nan nan nan nan nan nan 245 251 248 247 254 258 254 257 260 263 266 263 265 267 268 268 265 262 nan nan nan nan nan nan nan nan nan nan nan nan nan nan nan nan nan nan nan nan nan nan nan nan nan nan nan nan nan nan nan nan nan nan nan nan nan nan nan nan nan nan nan nan nan nan nan nan nan
nan nan nan nan nan nan nan nan nan nan nan nan nan nan nan nan nan nan nan 245 241 245 250 258 256 257 258 259 261 257 261 261 262 261 259 259 nan nan nan nan nan nan nan nan nan nan nan nan nan nan nan nan nan nan nan nan nan nan nan nan nan nan nan nan nan nan nan nan nan nan nan nan nan nan nan nan nan nan nan nan nan nan nan nan nan nan
nan nan nan nan nan nan nan nan nan nan nan nan nan nan nan nan nan nan nan nan 244 247 246 246 250 248 246 242 249 257 258 260 261 258 257 nan nan nan nan nan nan nan nan nan nan nan nan nan nan nan nan nan nan nan nan nan nan nan nan nan nan nan nan nan nan nan nan nan nan nan nan nan nan nan nan nan nan nan nan nan nan nan nan nan nan nan
nan nan nan nan nan nan nan nan nan nan nan nan nan nan nan nan nan nan nan nan 247 246 252 258 256 255 260 258 253 257 259 259 264 262 260 nan nan nan nan nan nan nan nan nan nan nan nan nan nan nan nan nan nan nan nan nan nan nan nan nan nan nan nan nan nan nan nan nan nan nan nan nan nan nan nan nan nan nan nan nan nan nan nan nan nan nan
nan nan nan nan nan nan nan nan nan nan nan nan nan nan nan nan nan nan nan nan nan 252 250 244 249 258 258 254 252 252 247 nan nan 252 260 nan nan nan nan nan nan nan nan nan nan nan nan nan nan nan nan nan nan nan nan nan nan nan nan nan nan nan nan nan nan nan nan nan nan nan nan nan nan nan nan nan nan nan nan nan nan nan nan nan nan nan
nan nan nan nan nan nan nan nan nan nan nan nan nan nan nan nan nan nan nan nan nan nan 246 251 244 246 254 261 264 263 265 261 nan nan 257 257 257 nan nan nan nan nan nan nan nan nan nan nan nan nan nan nan nan nan nan nan nan nan nan nan nan nan nan nan nan nan nan nan nan nan nan nan nan nan nan nan nan nan nan nan nan nan nan nan nan nan
nan nan nan nan nan nan nan nan nan nan nan nan nan nan nan nan nan nan nan nan nan nan nan 246 251 252 254 253 260 269 266 264 261 258 261 262 262 260 261 nan nan nan nan nan nan nan nan nan nan nan nan nan nan nan nan nan nan nan nan nan nan nan nan nan nan nan nan nan nan nan nan nan nan nan nan nan nan nan nan nan nan nan nan nan nan nan